This is the latest recevied weather packets stored in our database for station/object iw0uwf-4. If no packets are shown the sender has not sent any weather packets the latest 1 day(s).
| Time | Temp. | Humidity | Pressure | Rain* | Wind** | Luminosity | Snow |
|---|---|---|---|---|---|---|---|
| 1777980123 | 20° C | 70% | 1006.8 hPa | 0 mm | 3.13 m/s, 244° | 0 W/m² | - |
| 1777980063 | 20° C | 70% | 1006.6 hPa | 0 mm | 3.13 m/s, 262° | 0 W/m² | - |
| 1777979823 | 20° C | 70% | 1006.6 hPa | 0 mm | 2.24 m/s, 247° | 0 W/m² | - |
| 1777979763 | 19.44° C | 70% | 1006.6 hPa | 0 mm | 2.68 m/s, 249° | 0 W/m² | - |
| 1777979703 | 19.44° C | 70% | 1006.7 hPa | 0 mm | 2.24 m/s, 247° | 0 W/m² | - |
| 1777979643 | 19.44° C | 70% | 1006.7 hPa | 0 mm | 2.24 m/s, 245° | 0 W/m² | - |
| 1777979583 | 19.44° C | 70% | 1006.7 hPa | 0 mm | 2.68 m/s, 249° | 0 W/m² | - |
| 1777979523 | 19.44° C | 70% | 1006.7 hPa | 0 mm | 2.68 m/s, 257° | 0 W/m² | - |
| 1777979463 | 19.44° C | 70% | 1006.7 hPa | 0 mm | 2.68 m/s, 255° | 0 W/m² | - |
| 1777979404 | 19.44° C | 70% | 1006.7 hPa | 0 mm | 2.68 m/s, 256° | 0 W/m² | - |
| 1777979344 | 19.44° C | 70% | 1006.8 hPa | 0 mm | 2.68 m/s, 261° | 0 W/m² | - |
| 1777979284 | 19.44° C | 71% | 1006.8 hPa | 0 mm | 2.68 m/s, 258° | 0 W/m² | - |
| 1777979224 | 19.44° C | 71% | 1006.7 hPa | 0 mm | 2.68 m/s, 268° | 0 W/m² | - |
| 1777979164 | 18.89° C | 71% | 1006.9 hPa | 0 mm | 2.68 m/s, 264° | 0 W/m² | - |
| 1777979104 | 18.89° C | 71% | 1006.7 hPa | 0 mm | 2.68 m/s, 260° | 0 W/m² | - |
| 1777979044 | 18.89° C | 71% | 1006.7 hPa | 0 mm | 2.68 m/s, 251° | 0 W/m² | - |
| 1777978984 | 18.89° C | 71% | 1006.8 hPa | 0 mm | 2.68 m/s, 249° | 0 W/m² | - |
| 1777978924 | 18.89° C | 71% | 1006.7 hPa | 0 mm | 2.68 m/s, 243° | 0 W/m² | - |
| 1777978864 | 18.89° C | 71% | 1006.8 hPa | 0 mm | 2.68 m/s, 250° | 0 W/m² | - |
| 1777978804 | 18.89° C | 71% | 1006.9 hPa | 0 mm | 2.68 m/s, 237° | 0 W/m² | - |
| 1777978744 | 18.89° C | 71% | 1006.8 hPa | 0 mm | 2.68 m/s, 238° | 0 W/m² | - |
| 1777978684 | 18.89° C | 71% | 1006.9 hPa | 0 mm | 2.68 m/s, 246° | 0 W/m² | - |
| 1777978623 | 18.89° C | 71% | 1007 hPa | 0 mm | 2.68 m/s, 241° | 0 W/m² | - |
| 1777978563 | 18.89° C | 71% | 1006.9 hPa | 0 mm | 2.68 m/s, 249° | 0 W/m² | - |
| 1777978503 | 18.33° C | 71% | 1006.9 hPa | 0 mm | 2.68 m/s, 259° | 0 W/m² | - |
* Rain latest hour (hover to see other rain measurements)
** Current wind speed in m/s (hover to see current wind gust speed)